| time (UTC) | temp F | wind direction | speed knots | gust knots | rain 1hr in | rain 24hr in | rain mn in | humidity % | barometer mb |
| 20260505003012 | 67 | 182 | 0.0 | 0.0 | 0.00 | 0.00 | 0.00 | 49 | 1004.3 |
| 20260505001511 | 69 | 165 | 0.0 | 0.0 | 0.00 | 0.00 | 0.00 | 47 | 1004.0 |
| 20260505000015 | 69 | 254 | 0.0 | 0.0 | 0.00 | 0.00 | 0.00 | 44 | 1004.0 |
| 20260504234512 | 70 | 59 | 0.0 | 0.0 | 0.00 | 0.00 | 0.00 | 44 | 1004.0 |
| 20260504233104 | 70 | 239 | 0.0 | 1.7 | 0.00 | 0.00 | 0.00 | 43 | 1003.8 |
| 20260504231656 | 71 | 192 | 0.0 | 0.0 | 0.00 | 0.00 | 0.00 | 43 | 1003.8 |
| 20260504230057 | 71 | 186 | 0.0 | 0.9 | 0.00 | 0.00 | 0.00 | 43 | 1003.7 |
| 20260504224600 | 72 | 181 | 0.0 | 0.9 | 0.00 | 0.00 | 0.00 | 41 | 1003.7 |
| 20260504223038 | 72 | 52 | 0.0 | 0.9 | 0.00 | 0.00 | 0.00 | 41 | 1003.6 |
| 20260504221554 | 73 | 186 | 0.0 | 0.9 | 0.00 | 0.00 | 0.00 | 40 | 1003.5 |
| 20260504220037 | 73 | 221 | 0.0 | 0.9 | 0.00 | 0.00 | 0.00 | 39 | 1003.5 |
| 20260504214537 | 74 | 200 | 0.0 | 0.9 | 0.00 | 0.00 | 0.00 | 39 | 1003.5 |
| 20260504213031 | 74 | 112 | 0.0 | 3.5 | 0.00 | 0.00 | 0.00 | 41 | 1003.5 |
| 20260504211514 | 73 | 125 | 0.0 | 0.9 | 0.00 | 0.00 | 0.00 | 40 | 1003.8 |
| 20260504210012 | 74 | 192 | 0.0 | 0.9 | 0.00 | 0.00 | 0.00 | 39 | 1003.9 |
| 20260504204512 | 74 | 221 | 0.0 | 0.0 | 0.00 | 0.00 | 0.00 | 40 | 1004.1 |
| 20260504203054 | 74 | 335 | 0.0 | 0.9 | 0.00 | 0.00 | 0.00 | 39 | 1004.2 |
| 20260504201554 | 74 | 248 | 0.0 | 0.9 | 0.00 | 0.00 | 0.00 | 39 | 1004.3 |
| 20260504200050 | 73 | 251 | 0.0 | 8.7 | 0.00 | 0.00 | 0.00 | 40 | 1004.6 |
| 20260504194554 | 74 | 52 | 0.0 | 3.5 | 0.00 | 0.00 | 0.00 | 42 | 1004.6 |
| 20260504193056 | 73 | 229 | 1.7 | 9.6 | 0.00 | 0.00 | 0.00 | 40 | 1004.9 |
| 20260504191613 | 72 | 234 | 0.0 | 2.6 | 0.00 | 0.00 | 0.00 | 41 | 1005.1 |
| 20260504190050 | 72 | 266 | 0.0 | 7.0 | 0.00 | 0.00 | 0.00 | 43 | 1005.1 |
| 20260504184555 | 71 | 49 | 0.0 | 0.9 | 0.00 | 0.00 | 0.00 | 43 | 1005.4 |
| 20260504183036 | 71 | 152 | 0.0 | 3.5 | 0.00 | 0.00 | 0.00 | 43 | 1005.4 |
| 20260504181535 | 70 | 239 | 0.0 | 8.7 | 0.00 | 0.00 | 0.00 | 43 | 1005.6 |
| 20260504180036 | 70 | 167 | 0.0 | 7.8 | 0.00 | 0.00 | 0.00 | 44 | 1006.2 |
| 20260504174532 | 71 | 244 | 0.9 | 8.7 | 0.00 | 0.00 | 0.00 | 43 | 1006.0 |
| 20260504173050 | 70 | 263 | 0.0 | 4.3 | 0.00 | 0.00 | 0.00 | 44 | 1006.1 |
| 20260504171548 | 69 | 233 | 0.0 | 7.0 | 0.00 | 0.00 | 0.00 | 45 | 1006.3 |
| 20260504160118 | 67 | 221 | 0.0 | 4.3 | 0.00 | 0.00 | 0.00 | 47 | 1007.1 |
| 20260504081524 | 43 | 219 | 0.0 | 0.0 | 0.00 | 0.00 | 0.00 | 39 | 1009.9 |
| 20260504044650 | 46 | 215 | 0.0 | 0.0 | 0.00 | 0.00 | 0.00 | 51 | 1009.9 |
| 20260504041529 | 48 | 214 | 0.0 | 0.0 | 0.00 | 0.00 | 0.00 | 53 | 1010.0 |
| 20260504040026 | 49 | 222 | 0.0 | 0.0 | 0.00 | 0.00 | 0.00 | 53 | 1009.9 |
| 20260504034520 | 49 | 223 | 0.0 | 0.0 | 0.00 | 0.00 | 0.00 | 51 | 1009.9 |
| 20260504031515 | 49 | 223 | 0.0 | 0.0 | 0.00 | 0.00 | 0.00 | 51 | 1010.0 |
| 20260504030011 | 50 | 223 | 0.0 | 0.0 | 0.00 | 0.00 | 0.00 | 52 | 1010.1 |
| 20260504024509 | 50 | 223 | 0.0 | 0.0 | 0.00 | 0.00 | 0.00 | 53 | 1010.1 |
| 20260504021529 | 50 | 223 | 0.0 | 0.0 | 0.00 | 0.00 | 0.00 | 56 | 1010.2 |
| 20260504020024 | 49 | 223 | 0.0 | 0.0 | 0.00 | 0.00 | 0.00 | 59 | 1010.2 |
| 20260504014520 | 49 | 221 | 0.0 | 0.0 | 0.00 | 0.00 | 0.00 | 59 | 1010.1 |
| 20260504011502 | 51 | 221 | 0.0 | 0.0 | 0.00 | 0.00 | 0.00 | 59 | 1009.9 |
| 20260504010100 | 51 | 194 | 0.0 | 0.0 | 0.00 | 0.00 | 0.00 | 58 | 1009.8 |
| 20260504004554 | 51 | 194 | 0.0 | 0.0 | 0.00 | 0.00 | 0.00 | 58 | 1009.8 |